Location: ????????
(55.4000°N, 39.1167°E)
Time: 02:15:16
(UTC+00:00)

SL-16 R/B - Pass Details

Date: 19 May 2025
Orbit: 985 x 1006 km, 99.7° (Epoch: 14 June)

Event Time Altitude Azimuth Distance (km) Brightness Sun altitude
Rises 23:00:45 0° 127° (SE) 3,689 5.4 -11.6°
Reaches altitude 10° 23:03:23 10° 120° (ESE) 2,744 4.8 -11.5°
Maximum altitude 23:08:56 37° 55° (NE) 1,492 4.1 -11.1°
Drops below altitude 10° 23:14:31 10° 351° (N) 2,766 5.7 -10.8°
Sets 23:17:10 0° 344° (NNW) 3,721 6.3 -10.6°
